Location: Middelsbur
(53.6609°N, 7.5020°E)
Time: 13:21:35
(UTC+00:00)

Cosmos 1408 - Pass Details

Date: 06 July 2020
Orbit: 470 x 493 km, 82.6° (Epoch: 07 August)

Event Time Altitude Azimuth Distance (km) Brightness Sun altitude
Exits shadow 22:37:48 15° 205° (SSW) 1,342 4.3 -12.8°
Maximum altitude 22:40:36 60° 284° (WNW) 550 2.9 -12.9°
Drops below altitude 10° 22:44:10 10° 5° (N) 1,648 6.5 -13.0°
Sets 22:46:17 0° 9° (N) 2,531 7.6 -13.1°
